This is the latest recevied weather packets stored in our database for station/object K7TUS-6. If no packets are shown the sender has not sent any weather packets the latest 10 day(s).
| Time | Temp. | Humidity | Pressure | Rain* | Wind** | Luminosity | Snow |
|---|---|---|---|---|---|---|---|
| 1778153406 | 10.56° C | 1% | 984.1 hPa | - | - | - | - |
| 1778153105 | 11.11° C | 1% | 984 hPa | - | - | - | - |
| 1778152805 | 10.56° C | 1% | 984 hPa | - | - | - | - |
| 1778152504 | 10.56° C | 100% | 983.4 hPa | - | - | - | - |
| 1778152203 | 11.11° C | 1% | 983.7 hPa | - | - | - | - |
| 1778151602 | 11.11° C | 1% | 983.3 hPa | - | - | - | - |
| 1778151308 | 11.11° C | 1% | 983 hPa | - | - | - | - |
| 1778151007 | 10.56° C | 1% | 983.4 hPa | - | - | - | - |
| 1778150707 | 10.56° C | 1% | 983.6 hPa | - | - | - | - |
| 1778150406 | 10.56° C | 1% | 983.8 hPa | - | - | - | - |
| 1778150106 | 10.56° C | 100% | 983.8 hPa | - | - | - | - |
| 1778149805 | 10° C | 1% | 984.1 hPa | - | - | - | - |
| 1778149504 | 10° C | 1% | 984 hPa | - | - | - | - |
| 1778149204 | 10.56° C | 1% | 983.6 hPa | - | - | - | - |
| 1778148603 | 10.56° C | 1% | 984 hPa | - | - | - | - |
| 1778148309 | 11.11° C | 1% | 984.2 hPa | - | - | - | - |
| 1778148008 | 11.67° C | 1% | 985.2 hPa | - | - | - | - |
| 1778147707 | 11.67° C | 1% | 984.7 hPa | - | - | - | - |
| 1778147407 | 11.67° C | 1% | 984.3 hPa | - | - | - | - |
| 1778147106 | 12.22° C | 1% | 984.2 hPa | - | - | - | - |
| 1778146806 | 12.22° C | 1% | 984 hPa | - | - | - | - |
| 1778146505 | 12.22° C | 1% | 983.4 hPa | - | - | - | - |
| 1778146204 | 12.22° C | 1% | 984 hPa | - | - | - | - |
| 1778145909 | 12.22° C | 1% | 983.6 hPa | - | - | - | - |
| 1778145609 | 12.22° C | 1% | 984.2 hPa | - | - | - | - |
* Rain since midnight (hover to see other rain measurements)
** Current wind speed in m/s (hover to see current wind gust speed)